Погода в Чаре

Погода в Чаре : погода сейчас, прогноз погоды и архив. Всё, что Вы хотите узнать о погоде в Чаре!

Хотите узнать прогноз погоды в Чаре? Тогда Вам сюда: Погода в Чаре

Поиск расширенной информации на нашем сайте:

Другие новости

Новости СМИ2

Главная страница сайта

Новости сайта

03.07.2017

Напоминаем, что на нашем специализированном сайте Метеоцентр.Азия вы можете получить высокодетализированные автоматические прогнозы погоды по пунктам России, СНГ и мира в авиационном формате (включающие направление и скорость ветра, видимость, явления погоды, количество и форму облачности, нижнюю и верхнюю границу облачности).


Погода в Чаре - сегодня

Время (UTC), дата Ветер
(°,м/с) 
Видим.   Явления Облачность Т
(°С)
Тd
(°С)
f(%) Тe
(°С)
Pmin
(гПа)
dP
(гПа)
Po
(мм)
O2
(г/м3)
Тmin Tmax R s Состояние
почвы
21 17.02.18 тихо ()   20000 м    8/0 верхняя 
[Ci fib]
-33.6 -37.5 68 -34  1033.5  0.1  701  324           
00 18.02.18 тихо ()   20000 м    8/0 средняя, верхняя 
[Ac lent|Ci fib]
-36.3 -40.7 64 -36  1034.7  -0.1  701  328  -36.7      15  равномерный
сухой снег
100% 
03 18.02.18 тихо ()   20000 м    9/0 средняя, верхняя 
[Ac lent|Cs]
-25.8 -31.3 60 -26  1029.5  -0.8  701  314           
06 18.02.18 090 (В) 20000 м    10/3 1500 м кучево-дожд., средняя, верхняя 
[Cb cap|Ac lent|Cs]
-19.1 -27.6 47 -19  1025.3  -1.4  700  305           
09 18.02.18 130 (ЮВ) 20000 м    10/3 1500 м кучево-дожд., средняя, верхняя 
[Cb cap|Ac lent|Cs]
-18.9 -26.7 50 -22  1025  -0.2  699  304           
15 18.02.18 тихо ()   20000 м    8/0 средняя, верхняя 
[Ac lent|Cs]
-24.7 -30.2 60 -25  1027.9  0.1  700  312           
18 18.02.18 300 (СЗ) 20000 м    6/0 средняя, верхняя 
[Ac lent|Ci fib]
-28.5 -32.1 71 -29  1029.8  0.3  700  317           
21 18.02.18 230 (ЮЗ) 20000 м    4/0 средняя, верхняя 
[Ac lent|Ci fib]
-31.2 -34.3 74 -35  1030.9  700  320           
00 19.02.18 270 (З) 20000 м    10/0 средняя, верхняя 
[Ac lent|Cs]
-31.8 -35.6 69 -33  1031.4  0.2  700  321  -32      15  равномерный
сухой снег
100% 
03 19.02.18 тихо ()   20000 м    8/0 средняя, верхняя 
[Ac lent|Ci fib]
-19.6 -27.5 49 -20  1026  -0.4  700  305           
06 19.02.18 230 (ЮЗ) 20000 м    8/0 средняя, верхняя 
[Ac lent|Ci fib]
-15.5 -28.4 32 -19  1023.4  -0.9  699  300           
09 19.02.18 180 (Ю) 20000 м    10/0 средняя, верхняя 
[Ac lent|Cs]
-17.6 -28.3 39 -20  1024.2  699  303           
15 19.02.18 270 (З) 20000 м    10/0 верхняя 
[Cs]
-28 -32.4 66 -32  1028.1  -0.2  699  316           
18 19.02.18 270 (З) 20000 м    9/0 средняя, верхняя 
[Ac As|Cs]
-28.8 -33.2 66 -29  1027.8  -0.6  699  317           
21 19.02.18 260 (З) 20000 м    9/0 средняя, верхняя 
[Ac lent|Cs]
-29.7 -33.8 67 -30  1027.5  -0.6  698  317           
00 20.02.18 230 (ЮЗ) 20000 м    9/0 средняя, верхняя 
[Ac lent|Ci sp]
-31.7 -35.4 70 -33  1027.8  -0.4  700  321  -32.4      15  равномерный
сухой снег
100% 
03 20.02.18 250 (З) 20000 м    8/0 средняя, верхняя 
[Ac lent|Ci fib]
-17.7 -27.3 43 -20  1021.5  -0.7  697  302           
06 20.02.18 220 (ЮЗ) 20000 м    8/0 средняя, верхняя 
[Ac lent|Ci fib]
-15.2 -26.7 37 -20  1018.9  -1.6  696  299           
09 20.02.18 210 (ЮЗ) 20000 м    9/0 средняя, верхняя 
[Ac lent|Ci fib]
-16.9 -26.7 42 -19  1019.2  -0.3  696  301           
15 20.02.18 270 (З) 20000 м    10/0 средняя, верхняя 
[As trans|Cs]
-25.9 -30.3 66 -29  1021.6  -0.8  695  311           
18 20.02.18 тихо ()   20000 м    9/0 средняя, верхняя 
[Ac lent|Ci sp]
-28 -31.8 70 -28  1021.5  -0.8  695  314           
21 20.02.18 230 (ЮЗ) 20000 м    9/0 средняя, верхняя 
[Ac lent|Cs]
-28.3 -32.1 70 -29  1021.1  -0.4  694  314           
00 21.02.18 310 (СЗ) 20000 м    10/0 средняя, верхняя 
[Ac lent|Cs]
-31.1 -34.9 69 -32  1022.5  0.2  695  318  -31.1      15  равномерный
сухой снег
100% 
03 21.02.18 180 (Ю) 20000 м    9/0 средняя, верхняя 
[Ac lent|Cs]
-20 -27 54 -20  1018.5  0.3  695  304  -31.1         
06 21.02.18 260 (З) 20000 м    10/0 верхняя 
[Cs]
-14.6 -29 28 -15  1015.9  -0.6  694  297           
Время (UTC), дата Ветер
(°,м/с) 
Видим.   Явления Облачность Т
(°С)
Тd
(°С)
f(%) Тe
(°С)
Pmin
(гПа)
dP
(гПа)
Po
(мм)
O2
(г/м3)
Тmin Tmax R s Состояние
почвы

Для получения пояснительной информации подведите курсор к названию столбца.

ПОГОДА в Чаре - архив

Всё, что Вы хотите узнать о погоде в Чаре - удобно и подробно!

Выберите нужную дату (начиная с 1 января 2015* года) и нажмите кнопку "Найти".
Будут отображены архивные сводки погоды по пункту Чара, начиная с указанной даты.


Отображать данные в формате CSV (для использования в таблицах Excel)


Внимание! Наш архив погоды предназначен исключительно для личного некоммерческого использования в познавательных целях. Если Вам необходимы официальные справки о состоянии погоды (для производственных, юридических, коммерческих и т.п. целей), обращайтесь в органы Росгидромета.

*Примечание: данная дата относится к архиву по метеостанциям СССР (Россия, СНГ, Балтия).
Архив по метеостанциям Зарубежной Европы и Азии (кроме Китая) хранится 10 дней, по другим регионам земного шара (Китай, Африка, Америка, Австралия, Океания) - 1 день.

Чара - район местоположения метеостанции


Название, широта, долгота, высота метеостанции:
Чара 56.9°ш. 118.3°д. 711 м над ур. моря [Российская Федерация]

Дополнительная информация

В oтличие oт бoльшинства пoгoдных сайтoв мы публикуем пoдрoбную метеoинфoрмацию в детальнoм прoфессиoнальнoм фoрмате.

Характеристики температуры и влажнoсти вoздуха измеряются на высoте 2 м в тени вдали oт зданий и деревьев.
Скoрoсть ветра измеряется на высoте 10 м (на урoвне рoста челoвека скoрoсть ветра ниже в 1.5-2 раза). Если метеoстанция нахoдится в гoрoде или в лесу, тo скoрoсть ветра занижена на 2-4 м/с пo сравнению с oткрытым местoм. Скoрoсть ветра над акватoриями крупных рек и oзёр, а также на вершинах хoлмoв на 2-5 м/с выше, чем в oбычных услoвиях.
Атмoсфернoе давление в разных тoчках местнoсти мoжет значительнo oтличаться oт давления на метеoстанции, в зависимoсти oт услoвий рельефа (при пoдъёме на 10 м давление пoнижается примернo на 1 мм рт.ст.).